CW9792 Weather Reports


time (UTC)temp
C
wind
direction
speed
KPH
gust
KPH
rain 1hr
cm
rain 24hr
cm
rain mn
cm
humidity
%
barometer
mb
20260904165009 34 355 0.0 0.0 0.00 0.00 0.00 37 1015.2
20260904164508 34 291 0.0 0.0 0.00 0.00 0.00 38 1015.3
20260904164009 34 284 0.0 0.0 0.00 0.00 0.00 38 1015.3
20260904163508 34 284 0.0 0.0 0.00 0.00 0.00 38 1015.3
20260904163015 34 348 0.0 0.0 0.00 0.00 0.00 38 1015.3
20260904162506 34 323 0.0 0.0 0.00 0.00 0.00 39 1015.2
20260904162006 34 348 0.0 0.0 0.00 0.00 0.00 40 1015.2
20260904161507 34 300 0.0 0.0 0.00 0.00 0.00 40 1015.2
20260904161005 34 306 0.0 0.0 0.00 0.00 0.00 40 1015.2
20260904160505 33 287 0.0 0.0 0.00 0.00 0.00 43 1015.2
20260904160008 33 285 0.0 0.0 0.00 0.00 0.00 41 1015.2
20260904155504 33 289 0.0 0.0 0.00 0.00 0.00 40 1015.3
20260904155004 33 300 0.0 0.0 0.00 0.00 0.00 40 1015.3
20260904154504 33 323 0.0 0.0 0.00 0.00 0.00 39 1015.3
20260904154003 34 338 0.0 0.0 0.00 0.00 0.00 39 1015.2
20260904153504 33 288 0.0 0.0 0.00 0.00 0.00 42 1015.3
20260904153001 33 287 0.0 0.0 0.00 0.00 0.00 42 1015.3
20260904152600 33 286 0.0 0.0 0.00 0.00 0.00 41 1015.3
20260904152100 33 295 0.0 0.0 0.00 0.00 0.00 43 1015.4
20260904151559 33 292 0.0 0.0 0.00 0.00 0.00 42 1015.4
20260904151058 33 276 0.0 0.0 0.00 0.00 0.00 41 1015.3
20260904150601 33 296 0.0 0.0 0.00 0.00 0.00 42 1015.3
20260904150056 32 295 0.0 0.0 0.00 0.00 0.00 44 1015.3
20260904145555 32 312 0.0 0.0 0.00 0.00 0.00 45 1015.3
20260904145055 32 286 0.0 0.0 0.00 0.00 0.00 45 1015.2
20260904144555 32 277 0.0 0.0 0.00 0.00 0.00 45 1015.3
20260904144054 32 329 0.0 0.0 0.00 0.00 0.00 45 1015.3
20260904143553 32 277 0.0 0.0 0.00 0.00 0.00 47 1015.3
20260904143053 32 277 0.0 0.0 0.00 0.00 0.00 47 1015.2
20260904142551 31 277 0.0 0.0 0.00 0.00 0.00 49 1015.2
20260904142050 31 277 0.0 0.0 0.00 0.00 0.00 49 1015.3
20260904141555 31 277 0.0 0.0 0.00 0.00 0.00 49 1015.3
20260904141047 31 276 0.0 0.0 0.00 0.00 0.00 50 1015.2
20260904140547 30 262 0.0 0.0 0.00 0.00 0.00 53 1015.3
20260904140048 30 168 0.0 0.0 0.00 0.00 0.00 56 1015.3
20260904135546 29 168 0.0 0.0 0.00 0.00 0.00 57 1015.2
20260904135042 28 168 0.0 0.0 0.00 0.00 0.00 57 1015.2
20260904134600 28 159 0.0 0.0 0.00 0.00 0.00 58 1015.2
20260904134039 28 158 0.0 0.0 0.00 0.00 0.00 58 1015.3
20260904133538 27 178 0.0 0.0 0.00 0.00 0.00 58 1015.3
20260904133039 27 178 0.0 0.0 0.00 0.00 0.00 58 1015.3
20260904132537 27 161 0.0 0.0 0.00 0.00 0.00 58 1015.3
20260904132033 26 180 0.0 0.0 0.00 0.00 0.00 58 1015.2
20260904131533 26 181 0.0 0.0 0.00 0.00 0.00 58 1015.2
20260904131032 26 181 0.0 0.0 0.00 0.00 0.00 59 1015.2
20260904130532 26 90 0.0 0.0 0.00 0.00 0.00 60 1015.2
20260904130035 25 82 0.0 0.0 0.00 0.00 0.00 61 1015.1
20260904125534 25 221 0.0 0.0 0.00 0.00 0.00 63 1015.2
20260904125031 24 221 0.0 0.0 0.00 0.00 0.00 64 1015.1
20260904124530 24 221 0.0 0.0 0.00 0.00 0.00 66 1015.0
20260904124029 23 221 0.0 0.0 0.00 0.00 0.00 67 1014.9
20260904123529 23 223 0.0 0.0 0.00 0.00 0.00 67 1014.9
20260904123029 23 223 0.0 0.0 0.00 0.00 0.00 67 1014.9
20260904122528 23 223 0.0 0.0 0.00 0.00 0.00 67 1014.9
20260904122030 22 225 0.0 0.0 0.00 0.00 0.00 67 1014.8
20260904121527 22 227 0.0 0.0 0.00 0.00 0.00 66 1014.8
20260904121026 22 227 0.0 0.0 0.00 0.00 0.00 66 1014.8
20260904120528 22 227 0.0 0.0 0.00 0.00 0.00 66 1014.9
20260904120027 22 227 0.0 0.0 0.00 0.00 0.00 66 1014.8
20260904115528 22 227 0.0 0.0 0.00 0.00 0.00 66 1014.8
20260904115026 22 227 0.0 0.0 0.00 0.00 0.00 66 1014.8
20260904114526 22 227 0.0 0.0 0.00 0.00 0.00 66 1014.7
20260904114031 22 227 0.0 0.0 0.00 0.00 0.00 65 1014.8
20260904113525 22 227 0.0 0.0 0.00 0.00 0.00 65 1014.7
20260904113023 22 227 0.0 0.0 0.00 0.00 0.00 65 1014.5
20260904112522 22 227 0.0 0.0 0.00 0.00 0.00 65 1014.5
20260904112022 22 227 0.0 0.0 0.00 0.00 0.00 65 1014.5
20260904111522 22 227 0.0 0.0 0.00 0.00 0.00 65 1014.5
20260904111022 22 227 0.0 0.0 0.00 0.00 0.00 65 1014.4
20260904110521 22 227 0.0 0.0 0.00 0.00 0.00 65 1014.4
20260904110020 22 227 0.0 0.0 0.00 0.00 0.00 65 1014.2
20260904105522 22 227 0.0 0.0 0.00 0.00 0.00 65 1014.2
20260904105021 22 227 0.0 0.0 0.00 0.00 0.00 65 1014.3
20260904104520 22 227 0.0 0.0 0.00 0.00 0.00 65 1014.3
20260904104019 22 227 0.0 0.0 0.00 0.00 0.00 65 1014.3
20260904103522 22 227 0.0 0.0 0.00 0.00 0.00 65 1014.3
20260904103022 22 227 0.0 0.0 0.00 0.00 0.00 65 1014.2
20260904102518 22 227 0.0 0.0 0.00 0.00 0.00 65 1014.1
20260904102018 22 227 0.0 0.0 0.00 0.00 0.00 65 1014.1
20260904101517 22 227 0.0 0.0 0.00 0.00 0.00 65 1014.0
20260904101018 22 227 0.0 0.0 0.00 0.00 0.00 65 1014.1
20260904100517 22 227 0.0 0.0 0.00 0.00 0.00 64 1014.1
20260904100017 22 227 0.0 0.0 0.00 0.00 0.00 64 1014.1
20260904095521 22 227 0.0 0.0 0.00 0.00 0.00 64 1014.0
20260904095017 22 227 0.0 0.0 0.00 0.00 0.00 64 1013.9
20260904094533 22 227 0.0 0.0 0.00 0.00 0.00 64 1013.8
20260904094015 22 227 0.0 0.0 0.00 0.00 0.00 64 1014.0
20260904093515 23 227 0.0 0.0 0.00 0.00 0.00 64 1014.0
20260904093017 23 227 0.0 0.0 0.00 0.00 0.00 63 1014.0
20260904092516 23 227 0.0 0.0 0.00 0.00 0.00 63 1013.8
20260904092013 23 227 0.0 0.0 0.00 0.00 0.00 63 1013.8
20260904091513 23 227 0.0 0.0 0.00 0.00 0.00 63 1013.8
20260904091011 23 227 0.0 0.0 0.00 0.00 0.00 63 1013.9
20260904090511 23 227 0.0 0.0 0.00 0.00 0.00 63 1013.9
20260904090028 23 227 0.0 0.0 0.00 0.00 0.00 63 1013.8
20260904085511 23 227 0.0 0.0 0.00 0.00 0.00 63 1013.8
20260904085011 23 227 0.0 0.0 0.00 0.00 0.00 63 1013.8
20260904084512 23 227 0.0 0.0 0.00 0.00 0.00 63 1013.8
20260904084013 23 227 0.0 0.0 0.00 0.00 0.00 63 1013.8
20260904083510 23 227 0.0 0.0 0.00 0.00 0.00 63 1013.7
20260904083009 23 227 0.0 0.0 0.00 0.00 0.00 63 1013.8
20260904082508 23 227 0.0 0.0 0.00 0.00 0.00 63 1013.7
20260904082008 23 227 0.0 0.0 0.00 0.00 0.00 63 1013.8
20260904081509 23 227 0.0 0.0 0.00 0.00 0.00 63 1013.8
20260904081006 24 227 0.0 0.0 0.00 0.00 0.00 63 1013.7
20260904080507 24 227 0.0 0.0 0.00 0.00 0.00 63 1013.7
20260904080008 24 227 0.0 0.0 0.00 0.00 0.00 63 1013.7
20260904075506 24 227 0.0 0.0 0.00 0.00 0.00 63 1013.7
20260904075005 24 227 0.0 0.0 0.00 0.00 0.00 62 1013.6
20260904074503 24 227 0.0 0.0 0.00 0.00 0.00 62 1013.7
20260904074003 25 227 0.0 0.0 0.00 0.00 0.00 61 1013.8
20260904073503 25 227 0.0 0.0 0.00 0.00 0.00 61 1013.7
20260904073002 25 227 0.0 0.0 0.00 0.00 0.00 61 1013.7
20260904072059 25 227 0.0 0.0 0.00 0.00 0.00 60 1013.8
20260904071620 26 227 0.0 0.0 0.00 0.00 0.00 59 1013.8
20260904071100 26 227 0.0 0.0 0.00 0.00 0.00 57 1013.8
20260904070559 26 227 0.0 0.0 0.00 0.00 0.00 57 1013.7
20260904070116 26 227 0.0 0.0 0.00 0.00 0.00 57 1013.7
20260904065600 26 227 0.0 0.0 0.00 0.00 0.00 56 1013.8
20260904065058 26 227 0.0 0.0 0.00 0.00 0.00 57 1013.7
20260904064557 26 227 0.0 0.0 0.00 0.00 0.00 57 1013.6
20260904064057 26 227 0.0 0.0 0.00 0.00 0.00 57 1013.6
20260904063557 26 227 0.0 0.0 0.00 0.00 0.00 57 1013.7
20260904063105 26 227 0.0 0.0 0.00 0.00 0.00 57 1013.7
20260904062559 26 227 0.0 0.0 0.00 0.00 0.00 57 1013.8
20260904062055 26 227 0.0 0.0 0.00 0.00 0.00 57 1013.7
20260904061555 26 227 0.0 0.0 0.00 0.00 0.00 57 1013.9
20260904061054 26 227 0.0 0.0 0.00 0.00 0.00 57 1013.9
20260904060556 26 227 0.0 0.0 0.00 0.00 0.00 57 1013.9
20260904060054 26 227 0.0 0.0 0.00 0.00 0.00 57 1013.9
20260904055553 26 227 0.0 0.0 0.00 0.00 0.00 57 1013.9
20260904055052 26 227 0.0 0.0 0.00 0.00 0.00 57 1013.9
20260904054553 26 227 0.0 0.0 0.00 0.00 0.00 57 1014.0
20260904054051 26 227 0.0 0.0 0.00 0.00 0.00 57 1014.1
20260904053552 26 227 0.0 0.0 0.00 0.00 0.00 57 1014.1
20260904053101 26 227 0.0 0.0 0.00 0.00 0.00 57 1014.1
20260904052550 26 227 0.0 0.0 0.00 0.00 0.00 57 1014.1
20260904052049 26 227 0.0 0.0 0.00 0.00 0.00 57 1014.1
20260904051549 26 227 0.0 0.0 0.00 0.00 0.00 58 1014.1
20260904051047 26 227 0.0 0.0 0.00 0.00 0.00 58 1014.1
20260904050546 26 227 0.0 0.0 0.00 0.00 0.00 58 1014.2
20260904050047 26 227 0.0 0.0 0.00 0.00 0.00 58 1014.2
20260904045546 26 227 0.0 0.0 0.00 0.00 0.00 58 1014.3
20260904045046 26 227 0.0 0.0 0.00 0.00 0.00 59 1014.3
20260904044546 25 227 0.0 0.0 0.00 0.00 0.00 59 1014.3
20260904044046 26 227 0.0 0.0 0.00 0.00 0.00 59 1014.3
20260904043545 26 227 0.0 0.0 0.00 0.00 0.00 59 1014.3
20260904043056 25 227 0.0 0.0 0.00 0.00 0.00 59 1014.3
20260904042551 25 227 0.0 0.0 0.00 0.00 0.00 59 1014.4
20260904042044 25 227 0.0 0.0 0.00 0.00 0.00 59 1014.3
20260904041544 25 227 0.0 0.0 0.00 0.00 0.00 60 1014.2
20260904041046 25 227 0.0 0.0 0.00 0.00 0.00 60 1014.3
20260904040542 25 227 0.0 0.0 0.00 0.00 0.00 60 1014.3
20260904040100 25 227 0.0 0.0 0.00 0.00 0.00 60 1014.3
20260904035541 25 227 0.0 0.0 0.00 0.00 0.00 61 1014.3
20260904035041 25 227 0.0 0.0 0.00 0.00 0.00 61 1014.4
20260904034541 25 227 0.0 0.0 0.00 0.00 0.00 61 1014.4
20260904034041 25 227 0.0 0.0 0.00 0.00 0.00 62 1014.3
20260904033541 25 227 0.0 0.0 0.00 0.00 0.00 62 1014.4
20260904033043 25 227 0.0 0.0 0.00 0.00 0.00 62 1014.5
20260904032541 25 227 0.0 0.0 0.00 0.00 0.00 62 1014.4
20260904032041 25 227 0.0 0.0 0.00 0.00 0.00 62 1014.5
20260904031553 25 227 0.0 0.0 0.00 0.00 0.00 62 1014.5
20260904031040 25 227 0.0 0.0 0.00 0.00 0.00 62 1014.5
20260904030540 25 227 0.0 0.0 0.00 0.00 0.00 62 1014.6
20260904030040 25 227 0.0 0.0 0.00 0.00 0.00 62 1014.5
20260904025540 25 227 0.0 0.0 0.00 0.00 0.00 62 1014.6
20260904025040 25 227 0.0 0.0 0.00 0.00 0.00 62 1014.6
20260904024539 25 227 0.0 0.0 0.00 0.00 0.00 63 1014.6
20260904024039 26 227 0.0 0.0 0.00 0.00 0.00 63 1014.5
20260904023543 26 227 0.0 0.0 0.00 0.00 0.00 62 1014.5
20260904023039 26 227 0.0 0.0 0.00 0.00 0.00 62 1014.5
20260904022538 26 227 0.0 0.0 0.00 0.00 0.00 62 1014.5
20260904022039 26 227 0.0 0.0 0.00 0.00 0.00 62 1014.5
20260904021538 26 227 0.0 0.0 0.00 0.00 0.00 62 1014.5
20260904021038 26 227 0.0 0.0 0.00 0.00 0.00 62 1014.4
20260904020538 26 227 0.0 0.0 0.00 0.00 0.00 62 1014.4
20260904020042 26 227 0.0 0.0 0.00 0.00 0.00 62 1014.4
20260904015539 26 227 0.0 0.0 0.00 0.00 0.00 62 1014.4
20260904015038 26 227 0.0 0.0 0.00 0.00 0.00 62 1014.4
20260904014538 26 227 0.0 1.6 0.00 0.00 0.00 61 1014.4
20260904014038 26 227 0.0 1.6 0.00 0.00 0.00 61 1014.3
20260904013539 27 288 0.0 0.0 0.00 0.00 0.00 60 1014.2
20260904013044 27 288 0.0 0.0 0.00 0.00 0.00 60 1014.2
20260904012537 27 288 0.0 0.0 0.00 0.00 0.00 59 1014.1
20260904012037 27 288 0.0 0.0 0.00 0.00 0.00 59 1014.1
20260904011543 27 288 0.0 0.0 0.00 0.00 0.00 58 1014.1
20260904011036 27 288 0.0 0.0 0.00 0.00 0.00 57 1014.0
20260904010536 27 288 0.0 0.0 0.00 0.00 0.00 57 1013.8
20260904010036 28 288 0.0 0.0 0.00 0.00 0.00 56 1013.9
20260904005535 28 288 0.0 0.0 0.00 0.00 0.00 56 1013.7
20260904005035 28 288 0.0 0.0 0.00 0.00 0.00 56 1013.7
20260904004536 29 288 0.0 0.0 0.00 0.00 0.00 55 1013.7
20260904004036 29 290 0.0 0.0 0.00 0.00 0.00 52 1013.6
20260904003536 29 291 0.0 0.0 0.00 0.00 0.00 50 1013.6
20260904003035 30 290 0.0 0.0 0.00 0.00 0.00 51 1013.6
20260904002537 30 290 0.0 0.0 0.00 0.00 0.00 52 1013.5
20260904002035 30 290 0.0 0.0 0.00 0.00 0.00 51 1013.5
20260904001534 31 291 0.0 0.0 0.00 0.00 0.00 50 1013.5
20260904001034 31 291 0.0 0.0 0.00 0.00 0.00 51 1013.4
20260904000534 31 290 0.0 0.0 0.00 0.00 0.00 50 1013.3
20260904000034 31 291 0.0 0.0 0.00 0.00 0.00 48 1013.4
20260903235536 32 291 0.0 0.0 0.00 0.00 0.00 48 1013.3
20260903235034 32 291 0.0 0.0 0.00 0.00 0.00 46 1013.3
20260903234533 32 291 0.0 0.0 0.00 0.00 0.00 44 1013.2
20260903234034 32 291 0.0 0.0 0.00 0.00 0.00 43 1013.2
20260903233538 33 291 0.0 0.0 0.00 0.00 0.00 44 1013.2
20260903233033 34 291 0.0 0.0 0.00 0.00 0.00 42 1013.3
20260903232533 33 291 0.0 0.0 0.00 0.00 0.00 42 1013.2
20260903232033 33 291 0.0 0.0 0.00 0.00 0.00 41 1013.1
20260903231536 33 291 0.0 0.0 0.00 0.00 0.00 42 1013.1
20260903231032 35 290 0.0 0.0 0.00 0.00 0.00 40 1013.0
20260903230532 35 291 0.0 0.0 0.00 0.00 0.00 38 1013.0
20260903230044 35 291 0.0 0.0 0.00 0.00 0.00 35 1013.0
20260903225536 35 291 0.0 0.0 0.00 0.00 0.00 36 1013.1
20260903225031 35 290 0.0 0.0 0.00 0.00 0.00 32 1013.1
20260903224534 35 290 0.0 0.0 0.00 0.00 0.00 32 1013.1
20260903224032 35 290 0.0 0.0 0.00 0.00 0.00 33 1013.1
20260903223531 35 290 0.0 0.0 0.00 0.00 0.00 33 1013.1
20260903223031 35 290 0.0 0.0 0.00 0.00 0.00 34 1013.1
20260903222532 35 290 0.0 0.0 0.00 0.00 0.00 33 1013.1
20260903222031 35 267 0.0 0.0 0.00 0.00 0.00 33 1013.1
20260903221530 35 258 0.0 0.0 0.00 0.00 0.00 32 1013.0
20260903221030 35 258 0.0 0.0 0.00 0.00 0.00 32 1013.1
20260903220529 35 258 0.0 0.0 0.00 0.00 0.00 33 1013.0
20260903220029 35 257 0.0 0.0 0.00 0.00 0.00 33 1013.0
20260903215529 35 283 0.0 0.0 0.00 0.00 0.00 32 1013.1
20260903215028 35 295 0.0 0.0 0.00 0.00 0.00 32 1013.1
20260903214531 35 260 0.0 0.0 0.00 0.00 0.00 32 1013.3
20260903214028 35 256 0.0 0.0 0.00 0.00 0.00 32 1013.2
20260903213527 35 259 0.0 0.0 0.00 0.00 0.00 31 1013.2
20260903213039 35 211 0.0 0.0 0.00 0.00 0.00 31 1013.2
20260903212532 35 225 0.0 0.0 0.00 0.00 0.00 31 1013.3
20260903212024 36 255 0.0 0.0 0.00 0.00 0.00 33 1013.4
20260903211530 35 204 0.0 0.0 0.00 0.00 0.00 32 1013.5
20260903211024 35 220 0.0 0.0 0.00 0.00 0.00 32 1013.6
20260903210522 35 268 0.0 0.0 0.00 0.00 0.00 33 1013.7
20260903210021 35 298 0.0 0.0 0.00 0.00 0.00 33 1013.7
20260903205521 35 294 0.0 0.0 0.00 0.00 0.00 35 1013.8
20260903205021 35 297 0.0 0.0 0.00 0.00 0.00 33 1013.7
20260903204521 35 289 0.0 0.0 0.00 0.00 0.00 32 1013.8
20260903204021 35 314 0.0 0.0 0.00 0.00 0.00 32 1013.8
20260903203524 35 344 0.0 0.0 0.00 0.00 0.00 32 1013.8
20260903203020 36 292 0.0 0.0 0.00 0.00 0.00 32 1013.8
20260903202521 36 269 0.0 0.0 0.00 0.00 0.00 32 1013.9
20260903202019 36 273 0.0 0.0 0.00 0.00 0.00 32 1014.0
20260903201530 35 360 0.0 0.0 0.00 0.00 0.00 32 1014.0
20260903201017 35 286 0.0 0.0 0.00 0.00 0.00 31 1014.1
20260903200521 35 290 0.0 0.0 0.00 0.00 0.00 32 1014.1
20260903200016 36 294 0.0 1.6 0.00 0.00 0.00 30 1014.2
20260903195516 37 205 0.0 1.6 0.00 0.00 0.00 30 1014.2
20260903195019 37 181 0.0 0.0 0.00 0.00 0.00 33 1014.2
20260903194518 37 181 0.0 0.0 0.00 0.00 0.00 31 1014.3
20260903194013 37 181 0.0 1.6 0.00 0.00 0.00 31 1014.3
20260903193512 37 170 0.0 1.6 0.00 0.00 0.00 33 1014.3
20260903193012 36 147 0.0 0.0 0.00 0.00 0.00 35 1014.3
20260903192510 35 248 0.0 0.0 0.00 0.00 0.00 35 1014.5
20260903192009 35 255 0.0 0.0 0.00 0.00 0.00 34 1014.6
20260903191509 35 230 0.0 1.6 0.00 0.00 0.00 36 1014.6
20260903191009 35 217 0.0 0.0 0.00 0.00 0.00 34 1014.6
20260903190515 35 250 0.0 0.0 0.00 0.00 0.00 33 1014.7
20260903190008 35 242 0.0 0.0 0.00 0.00 0.00 34 1014.7
20260903185508 35 253 0.0 0.0 0.00 0.00 0.00 33 1014.8
20260903185008 35 267 0.0 1.6 0.00 0.00 0.00 35 1014.8
20260903184507 35 230 0.0 0.0 0.00 0.00 0.00 33 1014.8
20260903184007 35 178 0.0 0.0 0.00 0.00 0.00 35 1014.9
20260903183506 35 282 0.0 1.6 0.00 0.00 0.00 35 1014.9
20260903183007 35 200 0.0 1.6 0.00 0.00 0.00 35 1014.9
20260903182508 35 257 0.0 0.0 0.00 0.00 0.00 35 1014.9
20260903182005 35 176 0.0 0.0 0.00 0.00 0.00 34 1015.0
20260903181504 35 232 0.0 0.0 0.00 0.00 0.00 34 1015.0
20260903181004 35 236 0.0 0.0 0.00 0.00 0.00 34 1015.0
20260903180508 35 188 0.0 0.0 0.00 0.00 0.00 34 1015.1
20260903180012 35 211 0.0 0.0 0.00 0.00 0.00 34 1015.2
20260903175510 35 173 0.0 0.0 0.00 0.00 0.00 34 1015.2
20260903175004 35 225 0.0 0.0 0.00 0.00 0.00 34 1015.3
20260903174503 35 222 0.0 0.0 0.00 0.00 0.00 35 1015.4
20260903174006 35 223 0.0 0.0 0.00 0.00 0.00 35 1015.4
20260903173502 35 217 0.0 0.0 0.00 0.00 0.00 35 1015.4
20260903173002 35 290 0.0 0.0 0.00 0.00 0.00 36 1015.5
20260903172501 34 313 0.0 0.0 0.00 0.00 0.00 36 1015.5
20260903172002 34 294 0.0 0.0 0.00 0.00 0.00 37 1015.6
20260903171504 34 319 0.0 0.0 0.00 0.00 0.00 37 1015.6
20260903171001 35 286 0.0 0.0 0.00 0.00 0.00 38 1015.7
20260903170600 35 263 0.0 0.0 0.00 0.00 0.00 37 1015.7
20260903170105 35 198 0.0 1.6 0.00 0.00 0.00 39 1015.7
20260903165559 34 173 0.0 1.6 0.00 0.00 0.00 38 1015.7